Weather History for KMSP - September, 2012

Change the Weather History Date:

Monday, September 3, 2012

  Actual Average Record
Temperature  
Mean Temperature 81 °F 67 °F  
Max Temperature 92 °F 77 °F 97 °F (1925)
Min Temperature 70 °F 58 °F 32 °F (1974)
Degree Days  
Heating Degree Days 0 2  
Month to date heating degree days 0 5  
Since 1 July heating degree days 4 24  
Cooling Degree Days 16 4  
Month to date cooling degree days 37 12  
Year to date cooling degree days 1072 693  
Growing Degree Days 32 (Base 50)    
Moisture  
Dew Point 60 °F    
Average Humidity 51    
Maximum Humidity 79    
Minimum Humidity 23    
Precipitation  
Precipitation 0.00 in 0.11 in 1.08 in (1887)
Month to date precipitation 0.00 0.34  
Year to date precipitation 25.72 22.51  
Snow  
Snow 0.00 in 0.00 in 0.00 in ()
Month to date snowfall 0.0 0.0  
Since 1 July snowfall T 0.0  
Since 1 September snowfall 0.0 0.0  
Snow Depth 0.00 in    
Sea Level Pressure  
Sea Level Pressure 29.86 in    
Wind  
Wind Speed 4 mph (WNW)    
Max Wind Speed 13 mph    
Max Gust Speed 26 mph    
Visibility 10 miles    
Events      
T = Trace of Precipitation, MM = Missing Value Source: NWS Daily Summary

Daily Weather History Graph

Daily Weather History Graph

Search for Another Location

Airport or City:

Trip Planner

Search our weather history database for the weather conditions in past years. The results will help you decide how hot, cold, wet, or windy it might be!

Date:

Astronomy

Sep. 03, 2012 Rise Set
Actual Time 6:38 AM CDT 7:45 PM CDT
Civil Twilight 6:07 AM CDT 8:15 PM CDT
Nautical Twilight 5:31 AM CDT 8:51 PM CDT
Astronomical Twilight 4:53 AM CDT 9:29 PM CDT
Moon 8:52 PM CDT (9/3) 9:58 AM CDT (9/3)
Length of Visible Light 14h 07m
Length of Day
13h 07m
Waning Gibbous, 90% of the Moon is Illuminated
Sep 3
Waning Gibbous
Sep 8
Last Quarter
Sep 15
New
Sep 22
First Quarter
Sep 29
Full

Hourly Weather History & Observations

Time (CDT) Temp. Heat Index Dew Point Humidity Pressure Visibility Wind Dir Wind Speed Gust Speed Precip Events Conditions
12:53 AM 77.0 °F - 66.0 °F 69% 29.85 in 10.0 mi SE 5.8 mph - N/A   Mostly Cloudy
1:53 AM 75.9 °F - 66.0 °F 71% 29.86 in 10.0 mi SE 3.5 mph - N/A   Scattered Clouds
2:53 AM 77.0 °F - 66.0 °F 69% 29.85 in 10.0 mi South 5.8 mph - N/A   Mostly Cloudy
3:53 AM 77.0 °F - 66.0 °F 69% 29.85 in 10.0 mi South 6.9 mph - N/A   Mostly Cloudy
4:53 AM 75.9 °F - 66.0 °F 71% 29.86 in 10.0 mi SW 4.6 mph - N/A   Scattered Clouds
5:53 AM 73.0 °F - 66.0 °F 79% 29.86 in 10.0 mi West 4.6 mph - N/A   Scattered Clouds
6:53 AM 73.0 °F - 64.9 °F 76% 29.88 in 8.0 mi West 3.5 mph - N/A   Scattered Clouds
7:53 AM 75.0 °F - 64.9 °F 71% 29.89 in 8.0 mi WSW 4.6 mph - N/A   Scattered Clouds
8:53 AM 77.0 °F - 66.0 °F 69% 29.89 in 9.0 mi NW 3.5 mph - N/A   Mostly Cloudy
9:53 AM 81.0 °F 83.0 °F 66.0 °F 60% 29.89 in 9.0 mi North 5.8 mph - N/A   Scattered Clouds
10:53 AM 84.9 °F 86.6 °F 64.9 °F 51% 29.90 in 9.0 mi NNW 5.8 mph - N/A   Scattered Clouds
11:53 AM 88.0 °F 87.6 °F 60.1 °F 39% 29.89 in 10.0 mi NNW 6.9 mph 16.1 mph N/A   Scattered Clouds
12:53 PM 89.1 °F 87.3 °F 55.9 °F 32% 29.88 in 10.0 mi NNE 5.8 mph - N/A   Mostly Cloudy
1:53 PM 88.0 °F 85.7 °F 53.1 °F 30% 29.87 in 10.0 mi North 8.1 mph - N/A   Mostly Cloudy
2:53 PM 87.1 °F 84.9 °F 53.1 °F 31% 29.87 in 10.0 mi North 6.9 mph - N/A   Mostly Cloudy
3:53 PM 90.0 °F - 52.0 °F 27% 29.86 in 10.0 mi Variable 4.6 mph - N/A   Scattered Clouds
4:53 PM 91.0 °F - 48.0 °F 23% 29.84 in 10.0 mi NW 3.5 mph - N/A   Partly Cloudy
5:53 PM 90.0 °F - 46.9 °F 23% 29.84 in 10.0 mi Variable 3.5 mph - N/A   Scattered Clouds
6:53 PM 88.0 °F - 48.9 °F 26% 29.83 in 10.0 mi Calm Calm - N/A   Partly Cloudy
7:53 PM 82.9 °F - 48.9 °F 31% 29.84 in 10.0 mi Variable 4.6 mph - N/A   Partly Cloudy
8:53 PM 82.9 °F 82.8 °F 59.0 °F 44% 29.86 in 9.0 mi SSW 4.6 mph - N/A   Partly Cloudy
9:53 PM 79.0 °F - 59.0 °F 50% 29.87 in 8.0 mi Calm Calm - N/A   Partly Cloudy
10:53 PM 78.1 °F - 63.0 °F 60% 29.87 in 8.0 mi SSW 3.5 mph - N/A   Scattered Clouds
11:53 PM 73.9 °F - 62.1 °F 66% 29.87 in 10.0 mi NNW 3.5 mph - N/A   Partly Cloudy